User: anonymous   Login
Location: Squamish
(49.7000°N, 123.1500°W)
Time: 06:58:57
(UTC-08:00)
Language:

NOAA 19 - Orbit

View from above orbital plane
View from above orbital plane
View from above satellite
View from above satellite

Ground track
Ground track

The orbit data is extracted from the following two-line orbital elements,

1 33591U 09005A   15060.59324353  .00000286  00000-0  18117-3 0  9998
2 33591 098.9781 010.2860 0014944 111.5553 248.7212 14.11882654312311
Epoch (UTC): 01 March 2015 14:14:16
Eccentricity: 0.0014944
inclination: 98.9781°
perigee height: 842 km
apogee height: 864 km
right ascension of ascending node: 10.2860°
argument of perigee: 111.5553°
revolutions per day: 14.11882654
mean anomaly at epoch: 248.7212°
orbit number at epoch: 31231

The dashed part of the orbit path shows where the satellite is in the earth's shadow,  

DLR